Wind_Speed
6 5 5 4 4 3 3 2 2 2 3 3 3 3 3 3 3 4 5 7 8 8 10 11 12 13 14 15 15 15 16 16 17 18 19 20 20 21 22 22 22 23 23 24 24 23 22 21 20
6 7 7 6 6 5 3 3 3 3 2 3 3 3 4 4 3 4 6 7 8 10 11 12 13 14 15 15 15 15 16 17 18 18 19 20 21 22 23 23 23 24 24 25 25 25 24 23 21
7 7 8 8 7 5 4 3 2 3 3 2 3 4 5 5 4 6 7 9 9 11 12 12 13 14 14 14 14 14 15 16 17 18 19 21 22 22 23 23 23 24 24 24 25 25 25 24 23
9 8 9 9 7 6 5 3 2 2 2 2 3 4 5 5 6 7 9 10 10 11 11 11 12 12 12 13 13 14 15 15 16 18 19 20 21 22 22 23 23 24 25 25 25 25 25 25 24
11 11 11 10 8 7 6 5 3 3 3 3 4 5 5 6 7 8 9 10 10 10 11 11 11 11 12 12 13 13 14 15 15 16 17 17 19 20 21 21 22 23 24 25 26 26 26 25 24
13 13 12 11 8 8 7 6 5 4 4 4 5 7 7 7 8 8 10 10 10 10 10 10 10 10 10 11 12 12 13 14 14 15 15 16 17 18 19 20 21 22 23 24 25 26 26 25 25
15 14 13 12 10 9 7 7 5 5 4 5 6 7 8 8 8 9 9 10 10 9 9 10 10 10 10 10 11 12 13 13 14 15 15 16 16 17 18 19 20 21 23 24 25 26 27 27 26
17 16 15 14 12 10 9 7 6 5 5 6 6 7 7 8 8 9 9 8 8 8 8 9 9 9 10 10 11 12 13 14 14 15 16 16 17 17 18 18 19 20 21 22 24 25 26 27 27
18 17 16 14 13 12 9 7 6 4 5 7 7 8 8 8 8 9 8 8 8 7 8 8 8 8 9 10 11 12 13 14 15 16 16 17 17 18 18 19 19 20 21 22 23 24 25 26 27
17 16 15 14 13 10 7 7 5 4 5 6 7 8 8 9 9 9 8 7 7 7 7 7 7 7 8 10 11 12 13 15 16 17 17 18 19 19 19 20 20 20 20 21 22 23 24 25 27
18 16 14 13 10 8 7 6 5 5 5 6 7 7 8 9 9 8 8 7 7 6 6 6 6 7 8 10 11 13 14 15 16 17 19 19 19 19 19 20 20 20 20 21 21 21 22 24 25
18 17 14 13 10 7 6 6 5 5 5 6 7 8 8 8 8 8 7 7 7 6 5 5 6 6 8 9 11 13 14 16 17 18 19 20 20 20 20 20 20 20 20 20 20 20 21 23 24
18 16 15 13 11 9 8 7 6 6 6 7 8 8 8 8 7 7 7 7 6 6 5 5 6 7 9 10 12 13 15 16 18 19 20 20 20 20 20 20 20 19 19 19 19 19 20 22 23
18 17 15 13 11 9 8 8 8 6 6 7 8 9 9 8 7 7 6 6 6 5 5 6 7 8 9 10 12 14 16 17 19 19 20 20 20 20 20 20 20 19 18 17 16 17 18 20 22
17 16 14 12 11 9 8 7 7 6 7 7 7 8 9 8 7 7 6 6 6 5 5 6 7 8 9 11 12 14 16 18 19 20 20 20 21 21 20 20 19 18 17 15 14 15 15 17 20
16 13 12 11 11 9 7 6 6 6 7 7 7 8 8 8 7 7 6 6 5 5 5 6 7 8 10 11 13 15 17 19 19 20 20 20 21 21 21 21 19 17 15 13 12 12 13 14 17
13 12 10 10 9 8 7 7 7 6 7 7 7 7 8 8 7 7 6 5 5 5 5 6 7 8 10 11 14 16 17 19 19 20 20 20 20 21 21 20 18 16 14 12 10 9 10 12 14
11 11 9 9 7 7 6 6 7 7 7 7 7 7 7 7 7 7 6 6 5 5 5 6 7 8 10 12 14 16 18 19 19 20 20 20 20 20 21 19 18 16 14 12 9 8 8 10 11
10 10 8 7 4 4 4 5 6 7 7 7 7 6 6 7 7 7 7 6 5 6 6 6 8 9 10 12 14 16 17 18 19 19 20 20 20 20 20 19 18 16 13 12 9 7 6 8 10
9 7 6 5 3 3 3 3 4 5 6 7 7 6 6 7 7 7 7 7 6 6 6 7 8 9 10 12 14 15 17 18 18 19 19 20 20 20 19 19 18 16 14 11 9 6 5 6 8
8 6 5 4 3 3 2 2 3 4 5 6 6 6 6 6 6 7 7 7 7 7 7 7 8 9 10 12 13 15 16 17 17 18 19 19 20 19 19 19 18 16 14 12 9 6 4 4 6
6 5 4 3 2 2 1 1 2 3 3 4 6 6 6 6 7 7 7 7 7 7 7 8 9 9 10 11 13 14 15 16 17 17 18 19 19 19 19 18 18 16 14 12 11 8 4 3 4
6 5 4 2 1 1 2 2 2 3 4 5 7 8 7 7 7 8 8 8 8 8 8 8 9 10 10 11 12 13 14 15 16 17 18 18 19 19 18 18 17 16 14 13 11 9 6 3 2
6 4 3 1 1 2 3 3 3 5 6 7 8 8 8 8 8 8 8 8 8 8 8 9 9 10 10 10 11 12 13 14 15 16 17 18 18 18 18 17 17 16 14 12 11 9 8 5 1
5 3 2 1 2 2 4 5 5 7 8 9 10 10 10 9 9 9 9 9 9 9 9 9 10 10 10 10 10 11 12 13 14 15 16 17 18 18 17 17 16 15 14 13 11 10 8 6 3
3 2 2 2 3 3 5 6 8 9 10 11 12 11 11 10 9 9 10 10 9 10 10 10 10 10 10 10 10 11 11 12 13 14 15 16 17 17 17 16 15 14 14 13 11 11 9 7 4
2 2 3 4 5 6 6 8 10 12 13 14 13 12 12 11 10 10 10 11 11 11 11 11 11 11 10 10 10 10 11 11 12 13 14 15 16 16 15 15 15 14 14 12 11 10 10 8 5
2 3 4 5 6 7 8 9 11 13 14 15 14 13 12 11 12 12 12 12 12 12 12 12 12 12 11 11 11 11 11 11 12 13 14 14 15 15 14 14 15 14 13 12 11 10 10 8 6
4 5 6 7 8 9 9 10 13 14 16 16 15 14 13 12 12 13 13 13 14 14 14 14 14 13 12 12 12 11 11 11 11 12 13 13 14 14 14 14 14 14 13 12 11 10 9 8 7
5 6 7 8 9 10 11 10 14 16 17 17 16 15 14 13 12 13 14 14 15 15 15 15 15 15 14 14 13 13 12 11 11 11 12 12 13 13 13 13 13 13 13 13 12 10 9 8 7
Wind_Direction
222 233 245 253 245 240 228 227 234 200 195 203 213 232 262 277 279 287 293 298 305 311 312 310 307 305 305 301 296 292 288 285 282 280 279 275 273 273 272 272 269 265 263 263 264 264 264 265 265
226 229 241 248 250 244 247 221 206 207 193 193 217 246 273 293 297 295 294 298 304 309 309 309 307 306 306 304 300 296 293 290 287 284 282 279 277 276 274 272 269 266 266 264 262 262 261 262 262
230 233 242 248 253 248 250 224 214 221 195 196 228 255 271 287 298 298 299 304 308 309 310 310 309 309 308 308 306 303 299 296 292 289 285 282 280 278 278 273 270 267 266 266 262 261 260 259 259
233 241 243 246 252 247 242 203 203 197 208 230 262 272 274 286 295 299 303 306 309 310 312 313 313 313 313 314 312 310 308 303 299 295 290 288 284 280 279 276 272 269 267 264 262 261 258 257 257
234 241 245 250 251 246 247 237 215 218 227 252 265 283 287 290 295 300 305 310 313 315 317 318 319 318 318 319 319 318 316 312 308 304 299 295 291 287 283 278 275 272 269 266 262 260 257 255 254
233 237 241 246 245 245 252 241 232 237 230 254 275 287 292 291 299 304 309 311 315 318 321 322 324 324 325 326 326 324 323 321 318 314 310 305 300 295 290 284 279 276 271 268 265 260 256 254 252
229 235 239 241 250 249 254 251 245 247 249 260 273 286 293 296 301 304 307 309 314 320 322 325 328 329 330 332 332 331 330 329 327 324 320 316 310 304 297 290 285 279 274 270 266 262 258 253 251
226 232 238 242 249 251 255 241 238 253 265 272 275 290 295 297 302 303 304 310 315 319 324 328 330 332 334 334 335 336 334 333 331 328 325 321 317 312 306 298 291 284 279 274 268 263 259 253 249
226 231 235 244 253 250 240 228 227 255 275 280 291 296 298 303 305 305 307 312 315 320 325 330 333 334 336 337 339 340 339 336 333 331 327 324 321 316 311 305 298 290 284 278 271 265 259 253 249
228 233 238 248 253 252 245 240 241 269 279 285 295 301 299 305 307 307 307 311 314 320 325 330 334 336 341 342 343 342 341 339 337 334 331 328 324 320 316 310 304 296 287 280 273 266 260 253 248
229 235 240 242 250 256 247 242 251 273 285 293 300 303 304 308 307 305 304 304 309 314 317 324 330 335 341 344 344 344 344 342 339 337 334 331 327 323 318 314 308 301 293 284 276 267 258 251 247
230 234 241 242 248 254 256 247 268 274 290 291 296 302 306 306 302 298 295 295 299 304 310 320 330 336 342 346 347 347 346 344 343 341 337 334 331 327 322 317 312 305 297 288 279 268 258 250 245
229 236 239 244 245 249 258 257 270 275 291 292 290 297 304 301 296 294 293 293 295 299 306 321 334 340 344 347 348 348 346 345 344 342 339 337 335 332 328 323 316 309 302 292 282 271 258 249 243
221 230 237 239 242 243 247 253 258 279 289 294 294 297 302 302 299 298 297 294 294 298 309 322 332 338 343 346 346 346 346 346 345 344 342 340 339 335 331 328 322 315 307 298 287 273 259 249 240
215 221 224 225 232 239 245 257 260 273 284 289 294 298 302 299 293 295 295 290 291 297 307 320 329 336 340 342 344 345 345 346 345 345 344 343 342 340 338 335 329 321 313 303 290 276 260 248 238
210 213 216 224 231 234 240 252 268 280 283 290 297 299 302 296 292 294 292 289 290 295 304 318 326 333 337 340 343 344 345 345 345 346 346 345 344 343 342 340 335 330 323 313 297 279 261 247 237
209 213 216 224 228 236 244 254 265 277 283 288 296 299 299 296 293 291 285 286 287 290 299 313 323 330 334 339 342 344 344 345 346 347 346 347 346 346 346 345 342 338 333 323 307 282 260 246 237
208 213 217 220 224 236 244 258 268 276 282 291 294 294 298 299 295 285 278 280 283 284 291 307 320 327 334 339 341 343 344 345 347 347 348 348 348 348 349 348 347 345 340 333 319 291 263 245 236
202 206 209 211 226 253 268 266 275 278 278 284 289 299 302 299 295 287 278 277 276 278 288 304 315 324 332 337 340 342 344 346 347 349 349 349 350 350 351 351 350 350 347 341 333 309 272 248 236
193 195 205 210 223 254 277 288 285 280 279 282 288 297 300 295 290 287 278 274 273 274 287 301 312 321 329 335 339 342 344 346 348 350 351 352 351 350 350 351 352 350 349 348 344 327 290 257 237
183 183 189 199 207 232 249 284 299 291 286 289 297 300 300 299 296 292 281 272 272 273 283 296 308 316 324 332 337 341 344 346 349 351 352 353 353 352 351 352 353 353 353 351 350 343 317 269 240
156 151 159 179 190 216 260 277 297 305 306 304 313 310 311 309 299 292 282 275 273 272 279 291 302 311 319 328 334 339 344 347 349 351 353 354 355 355 354 354 355 355 356 357 359 356 343 292 238
154 160 162 168 198 260 286 296 324 326 340 331 321 315 313 308 300 293 285 281 276 273 277 286 298 306 315 323 331 338 343 346 349 352 353 356 357 357 356 356 357 358 359 2 5 7 3 349 249
156 162 169 184 251 270 288 305 329 339 341 337 331 322 316 310 302 294 289 283 276 273 274 282 293 300 308 318 327 335 341 345 348 351 353 356 357 357 357 358 359 0 2 3 4 7 11 11 346
152 162 187 239 272 282 295 305 324 334 338 331 328 321 313 307 302 294 288 284 277 273 273 279 288 294 301 312 321 330 338 343 346 350 352 354 357 358 359 359 0 2 3 5 6 7 7 6 5
164 179 219 246 274 279 295 304 316 324 327 323 319 317 311 303 300 294 288 284 279 273 271 275 283 290 296 304 313 322 332 339 343 346 350 352 355 358 1 1 1 3 3 4 5 4 6 6 4
173 234 263 273 283 298 304 308 310 310 313 315 315 316 312 304 299 294 287 282 278 272 269 272 278 283 289 296 303 312 323 332 338 343 347 351 354 357 0 2 2 4 4 2 2 3 5 2 359
240 274 285 287 291 296 299 301 303 307 311 313 316 317 314 305 299 293 285 280 276 271 268 270 274 278 283 288 293 302 313 323 331 338 344 348 352 355 357 1 3 4 4 4 2 3 3 2 359
260 278 288 292 296 298 299 300 300 301 305 310 316 317 312 304 295 288 283 279 275 271 268 268 271 274 277 281 285 293 302 311 321 330 338 344 348 352 355 357 0 3 4 3 2 1 1 1 0
265 279 289 294 297 298 299 301 296 298 304 310 315 314 310 303 294 287 282 278 274 271 269 268 269 271 273 275 278 283 291 300 309 319 329 337 343 347 350 352 355 358 1 3 2 0 360 359 357
Height
5882 5882 5882 5883 5883 5883 5882 5883 5882 5882 5883 5884 5884 5884 5885 5885 5886 5888 5886 5883 5882 5881 5880 5880 5878 5877 5876 5875 5874 5873 5872 5871 5871 5870 5869 5868 5868 5867 5867 5866 5866 5866 5866 5866 5866 5866 5866 5866 5867
5881 5881 5882 5882 5881 5881 5882 5882 5882 5882 5882 5883 5883 5884 5884 5884 5884 5884 5883 5882 5881 5880 5879 5878 5877 5875 5874 5873 5872 5871 5870 5869 5868 5867 5866 5865 5864 5863 5863 5862 5862 5862 5862 5862 5862 5862 5862 5863 5863
5879 5880 5881 5880 5880 5880 5881 5881 5881 5881 5882 5882 5882 5883 5883 5883 5883 5883 5881 5880 5880 5878 5877 5876 5875 5873 5872 5871 5869 5868 5867 5866 5865 5863 5862 5861 5860 5860 5858 5857 5857 5857 5857 5857 5857 5858 5858 5859 5860
5878 5879 5880 5879 5879 5879 5879 5880 5880 5881 5881 5882 5882 5881 5881 5882 5882 5881 5880 5879 5878 5877 5876 5874 5873 5871 5870 5869 5867 5866 5864 5863 5861 5860 5859 5857 5856 5855 5854 5853 5853 5853 5852 5853 5853 5853 5854 5855 5855
5876 5877 5877 5877 5877 5878 5878 5879 5879 5880 5880 5881 5881 5880 5880 5880 5880 5880 5879 5878 5877 5875 5874 5873 5871 5870 5868 5867 5865 5864 5862 5860 5859 5857 5856 5854 5853 5851 5850 5849 5849 5848 5848 5848 5848 5848 5849 5850 5851
5874 5875 5875 5875 5876 5877 5877 5878 5878 5879 5880 5880 5880 5879 5879 5879 5879 5878 5877 5876 5875 5874 5872 5871 5870 5868 5867 5865 5863 5862 5860 5858 5856 5855 5853 5851 5849 5848 5846 5845 5844 5843 5843 5842 5843 5843 5844 5845 5846
5872 5872 5873 5874 5875 5876 5877 5877 5878 5878 5878 5879 5879 5878 5878 5878 5877 5877 5876 5875 5873 5872 5871 5869 5868 5867 5865 5863 5862 5860 5858 5856 5854 5852 5850 5848 5846 5844 5842 5841 5839 5838 5838 5837 5837 5838 5838 5840 5841
5868 5871 5871 5872 5873 5874 5875 5876 5877 5877 5877 5878 5878 5877 5876 5876 5876 5875 5874 5873 5872 5871 5869 5868 5867 5865 5863 5862 5860 5858 5856 5854 5852 5850 5848 5845 5843 5841 5838 5836 5835 5834 5833 5832 5832 5832 5833 5834 5835
5867 5869 5869 5870 5872 5872 5873 5874 5875 5876 5876 5876 5876 5876 5875 5875 5874 5873 5872 5872 5870 5869 5868 5867 5865 5864 5862 5861 5859 5857 5855 5852 5850 5848 5845 5842 5840 5837 5835 5832 5830 5829 5827 5827 5826 5826 5827 5828 5829
5865 5866 5868 5869 5870 5870 5871 5872 5873 5875 5875 5874 5874 5874 5873 5873 5872 5871 5871 5870 5869 5868 5867 5866 5864 5863 5861 5859 5857 5855 5853 5850 5848 5845 5842 5839 5836 5834 5831 5828 5826 5824 5822 5821 5820 5820 5821 5822 5823
5862 5864 5865 5867 5868 5869 5870 5871 5872 5873 5873 5873 5873 5872 5872 5871 5870 5869 5869 5868 5867 5867 5866 5865 5863 5862 5860 5858 5856 5854 5851 5848 5845 5842 5839 5836 5833 5830 5827 5824 5821 5819 5817 5815 5814 5814 5815 5816 5818
5860 5862 5864 5865 5866 5868 5868 5870 5871 5871 5872 5871 5871 5870 5870 5870 5869 5868 5867 5867 5866 5865 5865 5863 5862 5860 5859 5857 5855 5852 5849 5846 5843 5840 5837 5833 5830 5826 5823 5820 5816 5814 5811 5810 5808 5808 5809 5810 5812
5858 5860 5862 5863 5865 5866 5867 5868 5869 5869 5870 5870 5869 5869 5868 5868 5867 5866 5866 5865 5864 5864 5863 5862 5860 5859 5857 5855 5853 5851 5848 5844 5841 5838 5834 5830 5827 5823 5819 5816 5812 5809 5806 5804 5803 5803 5803 5804 5806
5855 5857 5860 5862 5863 5864 5865 5866 5867 5867 5867 5868 5867 5867 5866 5866 5865 5865 5864 5863 5862 5862 5861 5860 5859 5857 5856 5854 5851 5849 5846 5842 5839 5835 5831 5828 5824 5820 5816 5812 5808 5805 5802 5800 5798 5797 5798 5799 5801
5853 5856 5858 5860 5861 5863 5864 5865 5865 5865 5865 5866 5865 5865 5864 5864 5863 5863 5862 5861 5861 5860 5859 5858 5857 5856 5854 5852 5850 5847 5844 5840 5837 5833 5829 5825 5821 5817 5813 5809 5804 5801 5798 5795 5794 5793 5793 5794 5796
5852 5855 5857 5859 5860 5861 5864 5863 5864 5863 5864 5863 5863 5863 5862 5862 5861 5861 5860 5860 5859 5858 5858 5857 5856 5854 5853 5850 5848 5845 5842 5838 5835 5831 5827 5823 5818 5814 5810 5806 5801 5797 5794 5792 5790 5789 5789 5790 5792
5850 5853 5855 5857 5858 5859 5861 5862 5862 5862 5862 5862 5861 5861 5860 5860 5860 5859 5858 5858 5858 5857 5856 5855 5854 5853 5851 5849 5846 5843 5840 5836 5833 5829 5825 5821 5816 5812 5808 5803 5799 5795 5792 5789 5787 5787 5786 5787 5788
5850 5852 5854 5856 5857 5858 5859 5860 5860 5860 5860 5860 5859 5859 5859 5858 5858 5857 5857 5856 5856 5855 5854 5854 5853 5851 5849 5847 5845 5842 5838 5835 5831 5827 5823 5819 5815 5810 5806 5802 5797 5793 5790 5787 5785 5784 5784 5784 5785
5849 5851 5853 5855 5856 5857 5857 5858 5858 5858 5858 5858 5858 5857 5857 5856 5855 5855 5854 5854 5854 5854 5853 5852 5851 5849 5848 5846 5843 5840 5837 5833 5829 5826 5821 5817 5813 5809 5805 5800 5796 5792 5789 5786 5784 5782 5782 5782 5783
5848 5850 5852 5853 5854 5855 5856 5856 5856 5856 5856 5856 5856 5855 5855 5854 5853 5853 5852 5852 5852 5852 5851 5850 5849 5848 5846 5844 5842 5839 5835 5832 5828 5824 5820 5816 5812 5808 5804 5799 5795 5792 5788 5785 5783 5781 5780 5780 5780
5847 5850 5851 5853 5853 5854 5855 5855 5855 5855 5855 5854 5853 5853 5853 5852 5851 5851 5850 5850 5850 5849 5849 5848 5847 5846 5845 5843 5840 5837 5834 5831 5827 5823 5819 5815 5811 5807 5803 5799 5795 5791 5787 5784 5782 5780 5779 5778 5779
5847 5849 5850 5851 5852 5853 5854 5854 5854 5854 5853 5852 5851 5850 5850 5850 5849 5849 5848 5848 5847 5847 5847 5846 5845 5844 5843 5841 5838 5836 5833 5829 5826 5822 5818 5814 5810 5806 5802 5798 5794 5791 5787 5784 5782 5780 5778 5778 5778
5847 5848 5849 5851 5852 5852 5852 5853 5853 5852 5851 5850 5849 5848 5848 5847 5847 5846 5846 5845 5845 5845 5845 5844 5843 5842 5841 5839 5837 5834 5831 5828 5825 5821 5818 5814 5809 5805 5802 5798 5794 5791 5787 5784 5782 5780 5778 5777 5777
5847 5849 5850 5851 5851 5852 5851 5851 5851 5850 5849 5848 5847 5846 5846 5845 5844 5844 5843 5843 5842 5842 5842 5842 5841 5840 5839 5837 5835 5833 5830 5827 5824 5820 5817 5813 5809 5805 5801 5798 5794 5791 5788 5785 5783 5780 5779 5777 5777
5847 5849 5850 5850 5850 5851 5850 5849 5849 5848 5847 5846 5845 5844 5843 5843 5842 5841 5841 5840 5840 5840 5840 5839 5839 5838 5837 5835 5833 5831 5829 5826 5823 5820 5816 5813 5809 5805 5801 5798 5794 5791 5788 5785 5783 5781 5779 5778 5777
5847 5848 5850 5850 5850 5849 5848 5847 5848 5846 5845 5844 5843 5842 5841 5841 5840 5839 5838 5838 5837 5837 5837 5837 5836 5835 5834 5833 5831 5830 5827 5825 5822 5819 5816 5812 5808 5805 5801 5798 5794 5791 5788 5786 5783 5781 5780 5778 5777
5846 5847 5848 5848 5848 5848 5847 5846 5845 5844 5843 5841 5841 5840 5839 5838 5837 5836 5835 5835 5834 5834 5834 5834 5833 5832 5832 5831 5829 5828 5826 5823 5821 5818 5815 5811 5808 5805 5801 5798 5795 5792 5789 5786 5784 5782 5780 5778 5777
5846 5846 5846 5846 5846 5845 5845 5844 5843 5842 5840 5839 5838 5837 5836 5835 5834 5833 5832 5832 5831 5831 5831 5830 5830 5829 5829 5828 5827 5825 5824 5822 5819 5817 5814 5811 5807 5804 5801 5798 5795 5792 5789 5786 5784 5782 5780 5778 5777
5845 5845 5844 5844 5844 5843 5843 5844 5841 5839 5837 5836 5835 5834 5833 5832 5831 5830 5829 5828 5828 5827 5827 5827 5826 5826 5825 5825 5824 5823 5821 5819 5817 5815 5812 5810 5807 5804 5801 5798 5795 5792 5789 5787 5784 5782 5780 5778 5777
5843 5843 5842 5842 5842 5840 5840 5843 5838 5836 5834 5833 5832 5831 5830 5829 5828 5827 5826 5825 5824 5823 5823 5823 5823 5822 5822 5821 5821 5820 5818 5817 5815 5813 5811 5808 5805 5803 5800 5797 5795 5792 5789 5786 5784 5782 5780 5778 5777